Regional Weather Roundup
Issued by NWS Portland, ME

Current Version | Previous Version | Graphics & Text | Print | Product List | Glossary On
Versions: 1 2 3 4 5 6 7 8 9 10 11 12 13 14 15 16 17 18 19 20 21 22 23 24 25 26 27 28 29 30 31 32 33 34 35 36 37 38 39 40 41 42 43 44 45 46 47 48 49 50
000
ASUS41 KGYX 191205
RWRGYX
WEATHER ROUNDUP FOR MAINE AND NEW HAMPSHIRE
NATIONAL WEATHER SERVICE GRAY ME
700 AM EST WED FEB 19 2020

MEZ002-005-006-010-012-015-018-020-021-024-026-027-029-191300-
MAINE

CITY           SKY/WX    TMP DP  RH WIND       PRES   REMARKS
PORTLAND       FAIR      34  26  72 W7        29.95R
6HR MIN TEMP:  28; 6HR MAX TEMP:  36;

SANFORD        FAIR      30  27  88 W6        29.96R
BAR HARBOR     MOCLDY    33  31  92 W7        29.86R
WISCASSET      FAIR      29  25  85 W3        29.94R
6HR MIN TEMP:  28; 6HR MAX TEMP:  30;

ROCKLAND       MOCLDY    34  27  75 W14       29.90R
FRYEBURG       FAIR      30  19  63 VRB3      29.91R
6HR MIN TEMP:  16; 6HR MAX TEMP:  35; 6HR PCP: TRACE;

LEWISTONAUBURN FAIR      21  19  93 SE5       29.92R
AUGUSTA        FAIR      32  23  69 W13G18    29.89R
6HR MIN TEMP:  21; 6HR MAX TEMP:  32;

WATERVILLE     MOCLDY    26  24  92 SW6       29.86R
BANGOR         MOCLDY    31  25  78 SW6       29.85S
6HR MIN TEMP:  29; 6HR MAX TEMP:  31; 6HR PCP: TRACE;

GREENVILLE       N/A     27  16  63 NW9G17    29.75R
6HR MIN TEMP:  24; 6HR MAX TEMP:  30;

MILLINOCKET    CLOUDY    32  21  64 W12G22    29.79R
6HR MIN TEMP:  23; 6HR MAX TEMP:  34; 6HR PCP: TRACE;

HOULTON        CLOUDY    32  24  72 W14G23    29.70R
6HR MIN TEMP:  25; 6HR MAX TEMP:  32; 6HR PCP: TRACE;

PRESQUE ISLE   FLURRIES  30  23  74 W23G31    29.70R WCI  17
6HR MIN TEMP:  23; 6HR MAX TEMP:  33; 6HR PCP: TRACE;

FRENCHVILLE    CLOUDY    28  18  66 NW22G31   29.64R WCI  14
6HR MIN TEMP:  22; 6HR MAX TEMP:  31; 6HR PCP: TRACE;

CARIBOU        MIX PCPN  31  21  66 W12G35    29.68R
6HR MIN TEMP:  24; 6HR MAX TEMP:  32; 6HR PCP:  0.01;

$$

NHZ002-005-008-009-011-012-014-191300-
NEW HAMPSHIRE

CITY           SKY/WX    TMP DP  RH WIND       PRES   REMARKS
PORTSMOUTH     MOCLDY    35  28  77 W6        29.97R
ROCHESTER      FAIR      31  26  82 W3        29.97R
6HR MIN TEMP:  30; 6HR MAX TEMP:  34;

NASHUA         FAIR      32  31  96 CALM      30.02R
MANCHESTER     FAIR      37  29  72 SW8       29.98R
6HR MIN TEMP:  33; 6HR MAX TEMP:  39;

CONCORD        FAIR      30  23  75 W7        29.98R
6HR MIN TEMP:  26; 6HR MAX TEMP:  33;

LACONIA        FAIR      30  23  75 W9        29.95R
PLYMOUTH       FAIR      32  21  64 W7        29.95R
BERLIN         MOCLDY    31  20  63 VRB5      29.85F
6HR MIN TEMP:  31; 6HR MAX TEMP:  35;

WHITEFIELD     FAIR      30  17  58 VRB7      29.90S
6HR MIN TEMP:  29; 6HR MAX TEMP:  33;

JAFFREY        FAIR      34  22  61 W7G22     29.98R
6HR MIN TEMP:  34; 6HR MAX TEMP:  37;

KEENE          MOCLDY    34  24  67 VRB7      30.02R
LEBANON        FAIR      34  18  52 W16G30    29.98R
6HR MIN TEMP:  28; 6HR MAX TEMP:  37;

MT WASHINGTON  BLWGSNOW   9   9 100 W85G99      N/A  VSB 0   WCI -24
6HR MIN TEMP:   8; 6HR MAX TEMP:  18; 6HR PCP:  0.06;

$$

VTZ005-007-008-191300-
VERMONT

CITY           SKY/WX    TMP DP  RH WIND       PRES   REMARKS
ST JOHNSBURY     N/A     32  17  54 MISG      29.92S
MONTPELIER     FAIR      29  15  56 W9G24     29.98R
BURLINGTON     CLOUDY    34  18  52 W10       30.02R
$$

MAZ007-012-024-CTZ003-RIZ002-NYZ038-NYZ072-191300-
SOUTHERN NEW ENGLAND AND NY

CITY           SKY/WX    TMP DP  RH WIND       PRES   REMARKS
BOSTON         MOCLDY    42  29  59 W12       30.02R
WORCESTER      FAIR      33  23  66 W12G25    30.00R
NANTUCKET      CLOUDY    41  33  73 NW15      30.04R
PROVIDENCE     CLOUDY    39  28  64 NW6       30.06R
HARTFORD       FAIR      35  24  64 W8        30.08R
ALBANY         MOCLDY    36  21  54 W16G22    30.11R
NEW YORK CITY  MOCLDY    42  26  53 NW12      30.14R
$$

ANZ081-ANZ082-ANZ150-NHZ014-MEZ023>029-191300-
COASTAL MARINE OBSERVATIONS

STATION/POSITION TIME  TEMP    WIND        PRES    WAVE
                       AIR SEA DIR/SP/G            HT/PER
                 (UTC) (F)     (DEG/KT/KT) (MB)    (FT/S)
MOUNT DESERT ROC 1100          270/ 18/ 24 1010.6R
ISLE OF SHOALS   1100   38     280/ 19/ 21 1014.2R
JEFFREYS LEDGE   1108      43                N/A     6/ 8
GEORGES BANK BUO 1150      44              1014.4R  10/10
$$

.............KEY..............
   WCI - WIND CHILL
   TC  - TEMPERATURE IN CELSIUS
   VSB - VISIBILITY IN MILES
   HX  - HEAT INDEX
   FAIR- INDICATES FEW OR NO CLOUDS BELOW 12,000 FT, WITH NO
         SIGNIFICANT WEATHER AND/OR OBSTRUCTIONS TO VISIBILITY.





USA.gov is the U.S. government's official web portal to all federal, state and local government web resources and services.